Location: São Paulo
(23.5507°S, 46.6334°W)
Time: 08:04:38
(UTC-03:00)

Vanguard 3 - Pass Details

Date: 23 February 2026
Orbit: 507 x 3205 km, 33.4° (Epoch: 7 March)

Event Time Altitude Azimuth Distance (km) Brightness Sun altitude
Exits shadow 05:11:13 - 251° (WSW) 3,941 10.2 -11.5°
Reaches altitude 10° 05:12:19 10° 249° (WSW) 3,654 10.0 -11.2°
Maximum altitude 05:22:16 55° 172° (S) 2,521 9.8 -9.0°
Drops below altitude 10° 05:38:54 10° 97° (E) 5,857 13.4 -5.3°
Sets 05:44:13 0° 92° (E) 7,063 14.2 -4.1°
